| time (UTC) | temp C | wind direction | speed KPH | gust KPH | rain 1hr cm | rain 24hr cm | rain mn cm | humidity % | barometer mb |
| 20260831203024 | 20 | 320 | 0.0 | 3.2 | 0.00 | 0.00 | 0.00 | 74 | 1017.4 |
| 20260831201530 | 21 | 321 | 0.0 | 4.8 | 0.00 | 0.00 | 0.00 | 70 | 1017.3 |
| 20260831200024 | 22 | 337 | 0.0 | 0.0 | 0.00 | 0.00 | 0.00 | 66 | 1016.9 |
| 20260831194532 | 23 | 337 | 0.0 | 1.6 | 0.00 | 0.00 | 0.00 | 53 | 1016.4 |
| 20260831193019 | 23 | 337 | 0.0 | 1.6 | 0.00 | 0.00 | 0.00 | 53 | 1015.8 |
| 20260831191514 | 23 | 338 | 0.0 | 1.6 | 0.00 | 0.00 | 0.00 | 53 | 1015.4 |
| 20260831190015 | 23 | 338 | 0.0 | 0.0 | 0.00 | 0.00 | 0.00 | 53 | 1015.3 |
| 20260831184522 | 23 | 338 | 0.0 | 0.0 | 0.00 | 0.00 | 0.00 | 53 | 1015.1 |
| 20260831183015 | 23 | 338 | 0.0 | 0.0 | 0.00 | 0.00 | 0.00 | 52 | 1014.7 |
| 20260831181519 | 24 | 338 | 0.0 | 0.0 | 0.00 | 0.00 | 0.00 | 49 | 1014.5 |
| 20260831180012 | 25 | 338 | 0.0 | 0.0 | 0.00 | 0.00 | 0.00 | 47 | 1014.4 |
| 20260831174512 | 25 | 338 | 0.0 | 0.0 | 0.00 | 0.00 | 0.00 | 46 | 1014.2 |
| 20260831173012 | 26 | 338 | 0.0 | 4.8 | 0.00 | 0.00 | 0.00 | 43 | 1014.2 |
| 20260831171511 | 26 | 340 | 0.0 | 4.8 | 0.00 | 0.00 | 0.00 | 42 | 1014.2 |
| 20260831170013 | 27 | 355 | 0.0 | 4.8 | 0.00 | 0.00 | 0.00 | 41 | 1014.1 |
| 20260831164511 | 27 | 167 | 0.0 | 9.7 | 0.00 | 0.00 | 0.00 | 41 | 1014.2 |
| 20260831163013 | 27 | 360 | 0.0 | 4.8 | 0.00 | 0.00 | 0.00 | 40 | 1014.3 |
| 20260831161513 | 27 | 332 | 0.0 | 6.4 | 0.00 | 0.00 | 0.00 | 40 | 1014.4 |
| 20260831160015 | 27 | 335 | 1.6 | 14.5 | 0.00 | 0.00 | 0.00 | 39 | 1014.3 |
| 20260831154514 | 28 | 333 | 3.2 | 14.5 | 0.00 | 0.00 | 0.00 | 39 | 1014.2 |
| 20260831153009 | 28 | 5 | 1.6 | 12.9 | 0.00 | 0.00 | 0.00 | 40 | 1014.3 |
| 20260831151507 | 28 | 317 | 0.0 | 6.4 | 0.00 | 0.00 | 0.00 | 39 | 1014.4 |
| 20260831150013 | 29 | 298 | 1.6 | 16.1 | 0.00 | 0.00 | 0.00 | 38 | 1014.6 |
| 20260831144517 | 30 | 22 | 1.6 | 12.9 | 0.00 | 0.00 | 0.00 | 37 | 1014.6 |
| 20260831143006 | 29 | 341 | 1.6 | 12.9 | 0.00 | 0.00 | 0.00 | 37 | 1014.5 |
| 20260831141505 | 29 | 327 | 3.2 | 16.1 | 0.00 | 0.00 | 0.00 | 37 | 1014.6 |
| 20260831140005 | 29 | 292 | 3.2 | 17.7 | 0.00 | 0.00 | 0.00 | 37 | 1014.6 |
| 20260831134504 | 29 | 313 | 0.0 | 14.5 | 0.00 | 0.00 | 0.00 | 39 | 1014.6 |
| 20260831133002 | 29 | 311 | 3.2 | 17.7 | 0.00 | 0.00 | 0.00 | 39 | 1014.7 |
| 20260831131558 | 28 | 322 | 3.2 | 14.5 | 0.00 | 0.00 | 0.00 | 42 | 1014.8 |
| 20260831130057 | 27 | 340 | 1.6 | 16.1 | 0.00 | 0.00 | 0.00 | 45 | 1014.9 |
| 20260831124551 | 26 | 323 | 0.0 | 16.1 | 0.00 | 0.00 | 0.00 | 51 | 1015.1 |
| 20260831123048 | 25 | 9 | 0.0 | 8.0 | 0.00 | 0.00 | 0.00 | 52 | 1015.3 |
| 20260831121545 | 25 | 201 | 0.0 | 6.4 | 0.00 | 0.00 | 0.00 | 53 | 1015.5 |
| 20260831120043 | 25 | 264 | 1.6 | 12.9 | 0.00 | 0.00 | 0.00 | 55 | 1015.6 |
| 20260831114541 | 25 | 178 | 0.0 | 8.0 | 0.00 | 0.00 | 0.00 | 57 | 1015.7 |
| 20260831113047 | 25 | 211 | 0.0 | 3.2 | 0.00 | 0.00 | 0.00 | 58 | 1015.6 |
| 20260831111603 | 25 | 341 | 0.0 | 8.0 | 0.00 | 0.00 | 0.00 | 59 | 1015.7 |
| 20260831110058 | 25 | 289 | 1.6 | 6.4 | 0.00 | 0.00 | 0.00 | 58 | 1015.6 |
| 20260831104537 | 24 | 55 | 0.0 | 6.4 | 0.00 | 0.00 | 0.00 | 60 | 1015.8 |
| 20260831103036 | 24 | 355 | 0.0 | 8.0 | 0.00 | 0.00 | 0.00 | 60 | 1015.7 |
| 20260831101534 | 24 | 197 | 0.0 | 3.2 | 0.00 | 0.00 | 0.00 | 62 | 1015.6 |
| 20260831100031 | 23 | 207 | 0.0 | 4.8 | 0.00 | 0.00 | 0.00 | 64 | 1015.6 |
| 20260831094530 | 23 | 240 | 0.0 | 4.8 | 0.00 | 0.00 | 0.00 | 66 | 1015.7 |
| 20260831093027 | 23 | 271 | 0.0 | 6.4 | 0.00 | 0.00 | 0.00 | 68 | 1015.7 |
| 20260831091520 | 22 | 178 | 0.0 | 1.6 | 0.00 | 0.00 | 0.00 | 68 | 1015.7 |
| 20260831090018 | 22 | 217 | 0.0 | 1.6 | 0.00 | 0.00 | 0.00 | 68 | 1015.5 |
| 20260831084531 | 22 | 202 | 0.0 | 4.8 | 0.00 | 0.00 | 0.00 | 68 | 1015.7 |
| 20260831083013 | 22 | 254 | 0.0 | 0.0 | 0.00 | 0.00 | 0.00 | 67 | 1015.2 |
| 20260831081520 | 21 | 254 | 0.0 | 0.0 | 0.00 | 0.00 | 0.00 | 67 | 1015.1 |
| 20260831080009 | 21 | 254 | 0.0 | 0.0 | 0.00 | 0.00 | 0.00 | 68 | 1015.0 |
| 20260831074522 | 20 | 336 | 0.0 | 3.2 | 0.00 | 0.00 | 0.00 | 71 | 1015.0 |
| 20260831073006 | 20 | 196 | 0.0 | 6.4 | 0.00 | 0.00 | 0.00 | 76 | 1015.3 |
| 20260831071557 | 19 | 82 | 0.0 | 0.0 | 0.00 | 0.00 | 0.00 | 78 | 1014.8 |
| 20260831070057 | 19 | 82 | 0.0 | 0.0 | 0.00 | 0.00 | 0.00 | 77 | 1014.4 |
| 20260831064605 | 19 | 82 | 0.0 | 0.0 | 0.00 | 0.00 | 0.00 | 77 | 1014.2 |
| 20260831063056 | 19 | 82 | 0.0 | 0.0 | 0.00 | 0.00 | 0.00 | 77 | 1013.7 |
| 20260831061554 | 18 | 69 | 0.0 | 1.6 | 0.00 | 0.00 | 0.00 | 78 | 1013.9 |
| 20260831060104 | 18 | 320 | 0.0 | 0.0 | 0.00 | 0.00 | 0.00 | 79 | 1014.5 |
| 20260831054551 | 18 | 320 | 0.0 | 0.0 | 0.00 | 0.00 | 0.00 | 81 | 1014.4 |
| 20260831053048 | 17 | 320 | 0.0 | 0.0 | 0.00 | 0.00 | 0.00 | 81 | 1014.3 |
| 20260831051546 | 17 | 320 | 0.0 | 0.0 | 0.00 | 0.00 | 0.00 | 82 | 1014.0 |
| 20260831050053 | 17 | 320 | 0.0 | 0.0 | 0.00 | 0.00 | 0.00 | 82 | 1013.8 |
| 20260831044543 | 17 | 320 | 0.0 | 0.0 | 0.00 | 0.00 | 0.00 | 81 | 1013.9 |
| 20260831043041 | 17 | 320 | 0.0 | 0.0 | 0.00 | 0.00 | 0.00 | 81 | 1014.0 |
| 20260831041547 | 17 | 320 | 0.0 | 0.0 | 0.00 | 0.00 | 0.00 | 81 | 1014.0 |
| 20260831040049 | 17 | 320 | 0.0 | 0.0 | 0.00 | 0.00 | 0.00 | 81 | 1014.0 |
| 20260831034540 | 17 | 320 | 0.0 | 0.0 | 0.00 | 0.00 | 0.00 | 80 | 1013.9 |
| 20260831033039 | 17 | 320 | 0.0 | 0.0 | 0.00 | 0.00 | 0.00 | 80 | 1013.8 |
| 20260831031538 | 17 | 320 | 0.0 | 0.0 | 0.00 | 0.00 | 0.00 | 79 | 1013.8 |
| 20260831030048 | 17 | 320 | 0.0 | 0.0 | 0.00 | 0.00 | 0.00 | 78 | 1013.8 |
| 20260831024538 | 17 | 320 | 0.0 | 0.0 | 0.00 | 0.00 | 0.00 | 77 | 1013.7 |
| 20260831023036 | 17 | 320 | 0.0 | 0.0 | 0.00 | 0.00 | 0.00 | 77 | 1013.9 |
| 20260831021536 | 17 | 320 | 0.0 | 0.0 | 0.00 | 0.00 | 0.00 | 78 | 1013.9 |
| 20260831020035 | 17 | 320 | 0.0 | 0.0 | 0.00 | 0.00 | 0.00 | 79 | 1013.9 |
| 20260831014537 | 16 | 320 | 0.0 | 0.0 | 0.00 | 0.00 | 0.00 | 80 | 1014.0 |
| 20260831013035 | 16 | 320 | 0.0 | 0.0 | 0.00 | 0.00 | 0.00 | 80 | 1014.1 |
| 20260831011537 | 17 | 320 | 0.0 | 0.0 | 0.00 | 0.00 | 0.00 | 79 | 1013.9 |
| 20260831010030 | 17 | 320 | 0.0 | 0.0 | 0.00 | 0.00 | 0.00 | 79 | 1014.0 |
| 20260831004528 | 17 | 320 | 0.0 | 0.0 | 0.00 | 0.00 | 0.00 | 79 | 1014.1 |
| 20260831003026 | 17 | 320 | 0.0 | 0.0 | 0.00 | 0.00 | 0.00 | 78 | 1014.2 |
| 20260831001528 | 17 | 320 | 0.0 | 0.0 | 0.00 | 0.00 | 0.00 | 78 | 1014.3 |
| 20260831000023 | 17 | 320 | 0.0 | 0.0 | 0.00 | 0.00 | 0.00 | 77 | 1014.3 |
| 20260830234521 | 17 | 320 | 0.0 | 0.0 | 0.00 | 0.00 | 0.00 | 76 | 1014.4 |
| 20260830233027 | 18 | 320 | 0.0 | 0.0 | 0.00 | 0.00 | 0.00 | 76 | 1014.5 |
| 20260830231517 | 18 | 320 | 0.0 | 0.0 | 0.00 | 0.00 | 0.00 | 75 | 1014.6 |
| 20260830230022 | 18 | 320 | 0.0 | 0.0 | 0.00 | 0.00 | 0.00 | 75 | 1014.7 |
| 20260830224513 | 18 | 320 | 0.0 | 0.0 | 0.00 | 0.00 | 0.00 | 74 | 1014.6 |
| 20260830223014 | 18 | 320 | 0.0 | 0.0 | 0.00 | 0.00 | 0.00 | 73 | 1014.7 |
| 20260830221509 | 18 | 320 | 0.0 | 0.0 | 0.00 | 0.00 | 0.00 | 72 | 1014.7 |
| 20260830220015 | 19 | 320 | 0.0 | 0.0 | 0.00 | 0.00 | 0.00 | 71 | 1014.7 |
| 20260830214508 | 19 | 320 | 0.0 | 0.0 | 0.00 | 0.00 | 0.00 | 70 | 1014.8 |
| 20260830213007 | 20 | 320 | 0.0 | 0.0 | 0.00 | 0.00 | 0.00 | 68 | 1014.7 |
| 20260830211507 | 20 | 320 | 0.0 | 0.0 | 0.00 | 0.00 | 0.00 | 67 | 1014.7 |
| 20260830210015 | 21 | 320 | 0.0 | 0.0 | 0.00 | 0.00 | 0.00 | 65 | 1014.6 |
| 20260830204506 | 21 | 320 | 0.0 | 0.0 | 0.00 | 0.00 | 0.00 | 63 | 1014.6 |